Probability
9 7 5 5 4 3 3 4 3 2 2 3 5 5 5 5 4 4 3 2 0 0 0 0 0 0 0 0 0 0 0 0 0 0 0 0 0 0
12 9 8 7 5 3 3 4 4 3 3 3 5 6 6 5 4 4 4 2 0 0 0 0 0 0 0 0 0 0 0 0 0 0 0 0 0 0
12 11 10 10 8 6 5 5 5 4 4 4 5 9 9 7 5 5 6 4 2 0 0 0 0 0 0 0 0 0 0 0 0 0 0 0 0 0
12 12 12 12 12 11 9 8 6 5 4 4 7 12 14 12 9 7 6 6 4 1 0 0 0 0 0 0 0 0 0 0 0 0 0 0 0 0
14 14 13 14 15 15 13 12 9 6 4 4 6 11 14 15 13 9 7 6 5 2 0 0 0 0 0 0 0 0 0 0 0 0 0 0 0 0
17 16 15 14 15 16 15 13 12 9 6 4 5 8 12 15 15 10 6 5 4 2 0 0 0 0 0 0 0 0 0 0 0 0 0 0 0 0
18 18 15 11 10 11 10 9 10 10 7 5 5 8 12 16 16 11 7 5 4 3 3 2 2 1 1 0 0 0 0 0 0 0 0 0 0 0
17 16 12 7 5 5 4 3 5 6 6 5 5 8 13 19 19 16 11 8 7 8 8 6 4 4 2 1 0 0 0 0 0 0 0 0 0 0
16 14 10 6 5 5 3 2 2 2 2 3 4 7 11 16 20 19 17 13 12 13 12 7 4 4 2 1 0 0 0 0 0 0 0 0 0 0
14 13 10 8 7 6 6 6 4 2 1 1 2 3 5 9 14 17 16 14 12 12 9 5 3 3 2 0 0 0 0 0 0 0 0 0 0 0
12 10 10 10 7 6 8 11 11 8 4 2 1 1 1 2 6 9 10 8 6 5 4 2 1 2 2 1 0 0 0 0 0 0 0 0 0 0
9 8 8 8 6 4 7 12 14 12 9 5 3 2 2 2 3 4 4 3 1 1 1 1 1 1 1 1 1 1 0 0 0 0 0 0 0 0
8 8 8 5 3 2 4 8 9 9 9 8 6 4 4 5 5 4 3 2 1 0 0 0 0 0 1 1 1 1 0 0 0 0 0 0 0 0
7 8 7 3 1 0 1 2 3 3 5 6 5 4 4 5 6 7 5 4 2 1 0 0 1 1 1 0 1 1 0 0 0 1 1 1 0 0
5 5 3 1 0 0 0 0 0 1 2 3 2 2 3 3 4 6 7 6 5 2 1 1 3 2 1 0 0 0 0 0 0 1 2 1 0 0
2 1 0 0 0 1 1 0 0 1 1 1 1 1 2 1 1 2 4 6 6 3 2 4 5 4 1 0 0 0 0 0 0 1 1 1 0 1
0 1 1 1 1 3 3 2 1 1 1 1 0 0 0 0 0 0 1 3 3 2 2 4 6 4 1 0 0 0 0 0 0 0 0 0 0 1
2 3 3 3 3 5 6 4 2 1 2 2 1 0 0 0 0 0 0 1 1 0 1 3 3 2 1 0 0 0 0 0 0 0 0 0 0 1
4 6 7 6 5 7 7 4 2 1 2 1 0 0 0 0 0 0 0 0 0 0 0 1 1 1 0 0 0 0 0 0 0 0 0 0 0 0
6 8 8 6 5 4 3 2 0 0 0 0 0 0 0 0 0 0 0 0 0 0 0 0 0 0 0 0 0 0 0 0 0 0 0 0 0 0
5 5 5 3 2 1 1 0 0 0 0 0 0 0 0 0 0 0 0 0 0 0 0 0 0 0 0 0 0 0 0 0 0 0 0 0 0 0
2 1 1 0 0 0 0 0 0 0 0 0 0 0 0 0 0 0 0 0 0 0 0 0 0 0 0 0 0 0 0 0 0 0 0 0 0 0
0 0 0 0 0 0 0 0 0 0 0 0 0 0 0 0 0 0 0 0 0 0 0 0 0 0 0 0 0 0 0 0 0 0 0 0 0 0
Wind_Speed
4 4 3 3 2 2 1 1 2 2 2 3 2 4 4 4 10 7 7 12 13 12 11 10 9 9 8 8 7 7 7 7 7 7 7 7 8 8
3 4 3 3 3 2 2 2 2 2 2 2 3 3 4 6 10 6 6 13 14 14 13 12 12 11 10 10 9 9 9 8 8 8 8 8 8 8
4 4 4 4 3 2 2 2 2 1 2 2 2 2 3 3 4 4 5 7 8 15 15 14 14 13 12 11 11 11 10 10 9 9 9 9 9 9
5 4 4 4 4 3 2 3 2 2 2 2 1 1 3 4 5 5 5 7 6 13 17 16 15 14 14 13 13 12 12 11 11 10 10 10 10 10
5 5 5 4 4 3 3 3 2 3 2 2 3 2 3 4 5 5 6 4 6 8 15 16 16 15 15 15 14 13 13 12 12 11 11 11 11 11
5 5 5 5 5 4 4 3 3 3 2 3 3 3 3 4 3 4 4 4 5 5 6 10 14 17 16 16 15 15 14 13 13 12 12 12 12 12
5 4 4 4 4 3 3 2 3 3 3 3 3 3 3 3 3 4 4 4 4 4 3 4 6 7 9 13 15 15 15 14 14 13 13 12 12 12
5 4 5 5 4 4 4 2 2 3 3 3 3 3 3 3 2 3 3 2 3 2 2 4 3 5 6 6 12 16 16 16 15 15 14 13 13 13
5 4 5 6 7 5 6 6 5 6 6 3 4 4 3 3 2 3 2 3 3 3 2 4 3 4 3 4 9 13 14 15 15 15 14 14 14 13
4 4 4 3 4 4 5 6 6 5 6 6 5 5 5 3 2 3 3 4 4 3 3 4 4 3 4 3 7 10 12 13 14 14 14 14 14 14
4 4 4 4 5 4 4 5 4 4 6 6 6 6 5 4 2 1 3 3 4 3 2 3 3 3 3 4 4 8 10 11 12 13 14 14 14 12
3 3 4 5 4 4 4 4 4 4 3 2 3 5 5 4 5 4 3 4 4 3 2 2 3 2 4 3 2 3 5 9 12 13 13 14 13 7
3 3 3 6 6 6 5 3 4 3 2 2 2 3 3 3 3 3 4 4 4 4 3 2 3 2 3 3 3 3 3 3 4 7 10 13 13 9
2 2 1 4 7 7 5 3 2 2 2 2 2 2 2 2 3 3 3 4 4 5 4 3 3 3 3 4 4 3 3 4 4 4 4 7 10 12
2 1 0 1 3 4 4 3 2 1 1 2 2 2 2 2 1 1 2 3 4 5 4 3 3 3 3 5 5 4 5 5 4 4 4 4 4 4
3 1 2 2 2 1 2 2 2 1 1 2 2 2 2 1 1 2 2 2 2 3 3 3 4 4 5 6 5 6 5 4 4 4 4 4 4 4
3 2 1 1 2 1 1 1 1 1 1 2 2 2 2 2 2 2 1 2 2 3 3 3 3 3 5 6 6 6 5 5 4 4 5 6 5 4
3 2 1 1 1 1 1 0 0 0 1 1 1 1 2 2 2 2 2 2 2 3 3 3 3 3 4 4 5 5 4 4 4 4 4 5 6 4
4 2 2 2 2 2 2 1 1 1 1 1 1 2 2 2 2 2 2 2 3 3 3 3 3 3 5 6 4 2 4 5 5 4 4 5 6 5
4 4 3 3 3 3 3 3 2 3 2 2 2 3 3 3 3 3 3 3 4 4 4 3 3 3 3 5 5 6 6 5 4 5 5 5 5 6
5 5 4 4 4 4 3 3 3 3 3 3 3 3 3 3 3 3 3 5 4 4 5 4 3 4 4 4 5 5 4 5 5 4 5 5 6 5
5 5 4 4 4 4 4 4 5 5 5 5 5 4 4 3 4 4 4 4 4 4 5 4 4 4 4 5 6 7 6 5 5 7 7 6 4 4
5 5 5 5 6 5 5 6 7 6 5 5 5 4 4 4 4 4 4 4 4 5 5 5 4 4 5 5 6 6 7 7 5 4 4 7 10 12
Wind_Direction
221 229 239 259 260 258 243 210 194 206 227 221 187 178 162 141 162 181 174 189 193 197 201 207 212 216 222 227 233 238 241 244 248 251 256 261 265 267
217 224 224 246 254 240 235 242 234 203 224 221 206 172 168 168 179 191 184 184 198 202 206 210 213 216 220 226 230 234 238 241 244 246 249 252 255 259
228 216 218 241 259 261 242 237 244 230 237 241 206 154 156 163 170 206 189 186 201 208 210 212 215 217 221 226 229 232 235 239 242 244 248 251 253 256
222 222 219 220 230 262 266 247 245 237 224 233 213 183 194 179 179 209 217 209 208 207 209 213 216 219 223 226 228 231 234 237 241 244 247 251 254 257
211 216 224 222 220 231 250 258 257 251 219 229 239 215 211 203 187 212 236 239 241 216 206 213 218 221 224 226 228 230 232 235 239 242 246 249 252 256
209 217 221 220 220 226 238 243 263 267 251 232 243 238 228 216 190 207 234 233 243 245 212 210 216 222 227 228 229 230 230 233 236 238 242 246 250 254
207 216 228 223 213 209 237 238 248 252 256 245 242 239 231 214 208 216 227 234 232 234 228 220 210 217 225 232 233 233 231 231 232 235 239 243 247 251
206 214 217 206 200 201 214 222 226 246 262 270 266 261 252 237 220 229 237 251 263 238 229 254 228 220 222 220 220 222 225 227 229 233 236 240 244 248
200 207 229 224 202 208 216 223 236 240 233 248 267 278 287 292 287 269 260 258 258 270 272 268 266 260 248 247 222 217 220 224 228 232 235 239 243 247
202 204 221 253 245 224 224 221 222 228 221 223 236 252 265 280 268 267 260 265 260 259 243 261 268 267 275 260 237 222 218 222 227 233 238 242 245 247
218 219 218 225 242 224 230 237 234 240 238 230 224 232 240 252 251 278 274 267 269 265 245 246 261 271 273 272 254 229 227 231 236 239 243 246 248 251
213 225 233 231 238 216 226 237 246 254 263 256 234 244 243 241 230 223 241 256 267 275 278 267 273 278 279 264 258 241 239 242 244 247 248 249 249 246
217 218 215 207 213 209 213 228 238 255 269 266 251 231 228 231 229 227 228 237 251 258 275 282 279 275 262 278 283 272 256 253 248 252 250 251 249 233
230 219 177 193 198 200 203 227 246 256 263 273 277 275 261 248 238 234 231 233 238 246 261 270 274 282 284 284 284 289 292 280 264 260 257 254 248 242
251 216 149 170 180 193 210 214 219 232 238 255 272 279 281 273 261 240 241 240 248 253 255 250 254 269 269 272 278 284 291 286 277 279 279 273 263 252
233 214 145 132 137 124 145 180 198 224 237 253 267 279 300 315 306 307 301 288 273 273 269 260 252 253 263 268 272 277 276 279 293 292 289 285 280 265
177 183 193 147 138 132 127 146 176 202 247 268 284 299 301 292 291 297 292 300 296 296 301 299 276 260 258 262 270 272 279 285 288 295 298 294 285 277
133 131 123 104 92 96 109 119 144 203 254 248 260 269 285 297 310 322 323 315 302 300 301 301 304 297 284 268 247 272 284 290 298 300 296 295 293 289
94 85 75 62 52 47 42 28 12 14 359 345 336 333 335 337 338 336 334 328 317 307 303 307 308 306 306 306 310 309 303 297 296 295 292 292 292 294
67 63 55 46 41 39 33 27 24 24 23 12 14 12 8 358 349 342 333 328 319 314 310 312 327 326 307 299 298 295 276 276 288 291 296 293 285 286
60 57 52 46 42 36 27 22 27 31 26 23 24 16 8 356 348 339 331 331 319 311 312 312 309 301 288 288 289 292 293 270 267 278 294 296 297 297
58 56 49 44 42 37 34 31 34 37 31 27 20 11 5 356 346 339 333 323 312 308 311 311 311 309 304 299 299 302 307 309 287 275 273 271 282 292
52 52 50 45 43 39 36 35 35 32 27 20 13 3 353 345 333 324 317 315 317 321 321 319 318 313 309 306 305 307 310 313 312 307 293 277 265 264